Manchester, NH

9:53 PM EST on January 18, 2018 (GMT -0500)
Manchester

Weather History for KMHT - October, 2013

Change the Weather History Date:

Friday, October 25, 2013

  Actual Average Record
Temperature  
Mean Temperature 40 °F 48 °F  
Max Temperature 48 °F 58 °F 77 °F (2001)
Min Temperature 33 °F 38 °F 20 °F (1969)
Degree Days  
Heating Degree Days 24 17  
Month to date heating degree days 336  
Since 1 July heating degree days 479  
Cooling Degree Days 0 0  
Month to date cooling degree days 0  
Year to date cooling degree days 638  
Moisture  
Dew Point 27 °F    
Average Humidity 60    
Maximum Humidity 85    
Minimum Humidity 36    
Precipitation  
Precipitation 0.00 in 0.12 in 1.92 in (1951)
Month to date precipitation 3.42  
Year to date precipitation 36.49  
Snow  
Snow 0.00 in - - ()
Month to date snowfall  
Since 1 July snowfall  
Snow Depth -    
Sea Level Pressure  
Sea Level Pressure 30.05 in    
Wind  
Wind Speed 4 mph (NW)    
Max Wind Speed 14 mph    
Max Gust Speed 18 mph    
Visibility 10 miles    
Events      
T = Trace of Precipitation, MM = Missing Value Source: NWS Daily Summary

Daily Weather History Graph

Daily Weather History Graph

Search for Another Location

Airport or City:

Trip Planner

Search our weather history database for the weather conditions in past years. The results will help you decide how hot, cold, wet, or windy it might be!

Date:

Astronomy

Oct. 25, 2013 Rise Set
Actual Time 7:11 AM EDT 5:47 PM EDT
Civil Twilight 6:42 AM EDT 6:16 PM EDT
Nautical Twilight 6:09 AM EDT 6:49 PM EDT
Astronomical Twilight 5:36 AM EDT 7:22 PM EDT
Moon 11:02 PM EDT (10/25) 12:52 PM EDT (10/25)
Length of Visible Light 11h 33m
Length of Day
10h 35m
Waning Gibbous, 62% of the Moon is Illuminated
Oct 25
Waning Gibbous
Oct 26
Last Quarter
Nov 3
New
Nov 10
First Quarter
Nov 17
Full

Hourly Weather History & Observations

Time (EDT) Temp. Windchill Dew Point Humidity Pressure Visibility Wind Dir Wind Speed Gust Speed Precip Events Conditions
12:53 AM 42.1 °F 40.2 °F 30.9 °F 65% 29.92 in 10.0 mi North 3.5 mph - N/A   Clear
1:53 AM 42.1 °F - 30.9 °F 65% 29.94 in 10.0 mi Calm Calm - N/A   Mostly Cloudy
2:53 AM 39.0 °F - 32.0 °F 76% 29.95 in 10.0 mi Calm Calm - N/A   Scattered Clouds
3:53 AM 37.0 °F - 30.9 °F 79% 29.95 in 10.0 mi Calm Calm - N/A   Clear
4:53 AM 34.0 °F - 30.0 °F 85% 29.97 in 10.0 mi Calm Calm - N/A   Clear
5:53 AM 34.0 °F - 30.0 °F 85% 29.99 in 10.0 mi Calm Calm - N/A   Clear
6:53 AM 33.1 °F - 28.9 °F 85% 30.01 in 10.0 mi Calm Calm - N/A   Clear
7:53 AM 34.0 °F - 30.0 °F 85% 30.04 in 10.0 mi Calm Calm - N/A   Clear
8:53 AM 39.0 °F - 32.0 °F 76% 30.05 in 10.0 mi Calm Calm - N/A   Clear
9:53 AM 43.0 °F 38.2 °F 30.0 °F 60% 30.05 in 10.0 mi WNW 8.1 mph - N/A   Clear
10:53 AM 45.0 °F 40.1 °F 28.0 °F 52% 30.05 in 10.0 mi NW 9.2 mph - N/A   Mostly Cloudy
11:53 AM 45.0 °F 38.9 °F 26.1 °F 48% 30.06 in 10.0 mi NNW 12.7 mph - N/A   Mostly Cloudy
12:53 PM 46.0 °F 39.9 °F 23.0 °F 40% 30.05 in 10.0 mi WNW 13.8 mph 18.4 mph N/A   Mostly Cloudy
1:53 PM 46.9 °F - 24.1 °F 41% 30.04 in 10.0 mi NNW 11.5 mph 18.4 mph N/A   Mostly Cloudy
2:53 PM 46.9 °F - 23.0 °F 39% 30.05 in 10.0 mi NNW 11.5 mph - N/A   Mostly Cloudy
3:53 PM 48.9 °F - 23.0 °F 36% 30.06 in 10.0 mi WNW 10.4 mph - N/A   Scattered Clouds
4:53 PM 48.0 °F - 23.0 °F 37% 30.07 in 10.0 mi WNW 10.4 mph - N/A   Partly Cloudy
5:53 PM 46.0 °F 41.9 °F 23.0 °F 40% 30.09 in 10.0 mi NW 8.1 mph - N/A   Clear
6:53 PM 44.1 °F 41.5 °F 24.1 °F 45% 30.12 in 10.0 mi West 4.6 mph - N/A   Clear
7:53 PM 43.0 °F - 24.1 °F 47% 30.14 in 10.0 mi Calm Calm - N/A   Clear
8:53 PM 42.1 °F 40.2 °F 24.1 °F 49% 30.15 in 10.0 mi West 3.5 mph - N/A   Clear
9:53 PM 37.0 °F - 25.0 °F 62% 30.16 in 10.0 mi Calm Calm - N/A   Clear
10:53 PM 35.1 °F - 26.1 °F 70% 30.17 in 10.0 mi Calm Calm - N/A   Clear
11:53 PM 33.1 °F - 26.1 °F 75% 30.17 in 10.0 mi Calm Calm - N/A   Clear